IRIDIUM 90 [-]

Last updated on Thu Jan 24 2019 03:01:19 GMT+0000 (Coordinated Universal Time)

1 27373U 02005B 19023.66723495 .09767247 -14688-5 23805-3 0 9992 2 27373 86.3941 78.4203 0013927 197.2183 162.8657 16.44980465899381

Satellite not in orbit